Back to catalog

STARLINK-5413

AliveCommunicationsVLEO
NORAD 54808·PAYLOAD·🇺🇸 United States

Launched Dec 17, 2022 from Cape Canaveral Space Force Station

Loading…

Next Passes (next 24 hours)

TLE

FreshSource: CelesTrak SupGP

Epoch: Sep 14, 2026, 14:41 UTC

1 54808C 22175BC  26257.61229167  .00669910  00000+0  24798-1 0  2576
2 54808  53.1607 244.7696 0001191  81.6657 178.8686 15.26798448    11

Track STARLINK-5413 in real time with AllMySat

Download on the App Store